Location: City of Clear Lake
(43.1347°N, 93.3740°W)
Time: 12:29:32
(UTC+00:00)

Envisat - Visible Passes

Search period start: 04 October 2024 00:00
Search period end: 14 October 2024 00:00
Orbit: 762 x 764 km, 98.3° (Epoch: 04 October)

Date Brightness Start Highest point End Pass type
(mag) Time Alt. Az. Time Alt. Az. Time Alt. Az.
04 Oct 4.7 08:51:55 10° NNE 08:54:56 30° NE 08:54:56 30° NE visible
04 Oct 4.1 10:31:19 10° N 10:35:04 25° WNW 10:35:04 25° WNW visible
05 Oct 5.6 08:15:24 10° NE 08:16:53 15° ENE 08:16:53 15° ENE visible
05 Oct 3.6 09:53:16 10° N 09:57:02 43° NNW 09:57:02 43° NNW visible
06 Oct 4.1 09:15:43 10° NNE 09:18:58 39° NNE 09:18:58 39° NNE visible
06 Oct 4.6 10:56:07 10° NNW 10:59:07 16° WNW 10:59:07 16° WNW visible
07 Oct 5.2 08:38:40 10° NNE 08:40:56 22° NE 08:40:56 22° NE visible
07 Oct 4.0 10:17:35 10° N 10:21:04 30° NW 10:21:04 30° NW visible
08 Oct 6.0 08:02:42 10° ENE 08:02:53 10° ENE 08:02:53 10° ENE visible
08 Oct 3.9 09:39:44 10° N 09:43:01 40° N 09:43:01 40° N visible
09 Oct 4.7 09:02:19 10° NNE 09:04:58 29° NE 09:04:58 29° NE visible
09 Oct 4.4 10:42:08 10° NNW 10:45:06 20° NW 10:45:06 20° NW visible
10 Oct 5.6 08:25:31 10° NE 08:26:54 16° NE 08:26:54 16° NE visible
10 Oct 4.0 10:03:55 10° N 10:07:02 32° NNW 10:07:02 32° NNW visible
11 Oct 4.3 09:26:13 10° NNE 09:28:59 33° NNE 09:28:59 33° NNE visible
11 Oct 4.8 11:07:15 10° NNW 11:09:07 13° NW 11:09:07 13° NW visible
12 Oct 5.2 08:48:59 10° NNE 08:50:55 21° NE 08:50:55 21° NE visible
12 Oct 4.3 10:28:18 10° N 10:31:03 23° NW 10:31:03 23° NW visible
13 Oct 6.0 08:12:32 10° NE 08:12:51 11° NE 08:12:51 11° NE visible
13 Oct 4.2 09:50:16 10° N 09:52:59 31° N 09:52:59 31° N visible
